Location: ????
(55.5675°N, 37.6272°E)
Time: 06:35:40
(UTC+00:00)

Cosmos 2058 Rocket - Pass Details

Date: 14 April 2026
Orbit: 603 x 633 km, 82.5° (Epoch: 12 May)

Event Time Altitude Azimuth Distance (km) Brightness Sun altitude
Exits shadow 23:33:37 24° 151° (SSE) 1,325 4.5 -19.8°
Maximum altitude 23:35:55 43° 93° (E) 890 4.0 -19.6°
Drops below altitude 10° 23:40:07 10° 23° (NNE) 2,009 6.9 -19.3°
Sets 23:42:25 0° 17° (NNE) 2,915 7.9 -19.1°
